Content
SEND FEEDBACK

Daily
Averages
Monthly
Summary
Canada

ST. JOHN'S, NEWFOUNDLAND


Home > North America > Canada > Newfoundland
Elevation: 459 feet     Latitude: 47 37N     Longitude: 052 44W

WEATHER
 
SELECT A DAY
Number of Records: 203,032;   Date Range: 1/1/95 - 7/30/14
 
SHARE

PRINT THIS DATA

[ ← Previous Day ]
WEATHER ALMANAC - OCTOBER 22, 2013
[ Next Day → ]
[ °C ]   °F
Weather ElementAverageHighLow
Temperature41.1 °F44.6 °F (2:30 pm)39.2 °F (4:50 am)
Dewpoint37.5 °F41 °F (1:30 am)33.8 °F (1:30 pm)
Humidity86.8 %93 % (1:30 am)66 % (3:30 pm)
Barometer29.81 in29.97 in (10:56 pm)29.59 in (1:30 am)
Wind Speed20.1 mph26.5 mph (2:30 am)
Wind Gust40.3 mph (8:30 am)
Weather ElementAverage
Visibility14.1 mi
Wind DirectionNW (314.4 °)

Weather ElementTotal
Precipitation---
Heating Degree Days23.1 (Base 65)
Averaged from 36 records on October 22, 2013
WEATHER CONDITIONS BREAKOUT
WIND DIRECTION BREAKOUT
WEATHER BY HOUR - OCTOBER 22, 2013
[ °C ]   °F
Local TimeTemperatureDewpointHumidityBarometerVisibilityWind DirectionWind SpeedGust SpeedPrecipitationEventsConditions
1:30 AM42.8 °F41.0 °F93 %29.59 in8.0 miNW (320°)23.0 mph31.1 mphRainLight Rain Showers
1:55 AM42.8 °F41.0 °F93 %29.60 in15.0 miNW (320°)24.2 mphMostly Cloudy
2:30 AM41.0 °F39.2 °F93 %29.61 in12.0 miNW (310°)26.5 mph39.1 mphRainLight Rain Showers
3:30 AM41.0 °F39.0 °F89 %29.65 in12.0 miNW (310°)25.3 mphRainLight Rain Showers
3:30 AM41.0 °F39.2 °F93 %29.65 in12.0 miNW (310°)24.2 mph32.2 mphRainLight Rain Showers
4:30 AM41.0 °F37.4 °F87 %29.68 in12.0 miNW (320°)23.0 mph34.5 mphRainLight Rain Showers
4:50 AM39.2 °F37.4 °F93 %29.69 in12.0 miNW (310°)24.2 mph35.7 mphLight Drizzle
5:30 AM39.2 °F37.4 °F93 %29.71 in15.0 miNW (320°)19.6 mph29.9 mphLight Drizzle
6:09 AM39.2 °F37.4 °F93 %29.73 in15.0 miNW (320°)20.7 mph31.1 mphOvercast
6:30 AM41.0 °F37.4 °F87 %29.73 in15.0 miNW (320°)23.0 mph34.5 mphMostly Cloudy
6:50 AM39.2 °F37.4 °F93 %29.73 in12.0 miNW (320°)20.7 mph31.1 mphRainLight Rain Showers
7:30 AM39.2 °F35.6 °F87 %29.75 in15.0 miNW (320°)23.0 mph35.7 mphRainLight Rain Showers
8:15 AM39.2 °F35.6 °F87 %29.77 in15.0 miNW (310°)25.3 mph34.5 mphOvercast
8:30 AM39.2 °F35.6 °F87 %29.78 in15.0 miNW (320°)26.5 mph40.3 mphOvercast
9:30 AM40.0 °F36.0 °F82 %29.79 in15.0 miNW (310°)24.2 mphPartly Cloudy
9:30 AM41.0 °F35.6 °F81 %29.79 in15.0 miNW (310°)24.2 mph33.4 mphOvercast
10:30 AM41.0 °F35.6 °F81 %29.81 in15.0 miNW (310°)21.9 mph31.1 mphOvercast
11:30 AM41.0 °F35.6 °F81 %29.82 in15.0 miNW (310°)19.6 mph31.1 mphOvercast
12:30 PM41.0 °F35.6 °F81 %29.82 in15.0 miNW (310°)25.3 mph34.5 mphOvercast
1:30 PM41.0 °F33.8 °F76 %29.82 in15.0 miWNW (290°)21.9 mph29.9 mphMostly Cloudy
2:30 PM44.6 °F35.6 °F71 %29.81 in15.0 miWNW (300°)19.6 mph28.8 mphMostly Cloudy
3:30 PM44.0 °F36.0 °F66 %29.83 in15.0 miNW (310°)24.2 mphMostly Cloudy
3:30 PM42.8 °F35.6 °F76 %29.83 in15.0 miNW (310°)19.6 mph33.4 mphMostly Cloudy
4:30 PM42.8 °F37.4 °F81 %29.85 in15.0 miNW (320°)16.1 mph24.2 mphMostly Cloudy
5:30 PM42.8 °F37.4 °F81 %29.88 in15.0 miNW (320°)20.7 mph29.9 mphOvercast
6:30 PM41.0 °F37.4 °F87 %29.90 in15.0 miNW (320°)19.6 mph28.8 mphOvercast
7:19 PM41.0 °F37.4 °F87 %29.92 in15.0 miNW (310°)19.6 mph29.9 mphRainLight Rain Showers
7:30 PM41.0 °F37.4 °F87 %29.93 in15.0 miNW (320°)11.5 mph20.7 mphRainLight Rain Showers
8:30 PM41.0 °F39.2 °F93 %29.93 in15.0 miNW (310°)16.1 mph24.2 mphRainLight Rain Showers
9:05 PM41.0 °F39.2 °F93 %29.94 in15.0 miNW (320°)17.3 mph23.0 mphMostly Cloudy
9:30 PM41.0 °F39.0 °F89 %29.95 in15.0 miNW (320°)16.1 mphRainLight Rain Showers
9:30 PM41.0 °F39.2 °F93 %29.95 in15.0 miNW (320°)15.0 mph21.9 mphOvercast
10:30 PM41.0 °F39.2 °F93 %29.96 in15.0 miNNW (330°)12.7 mph18.4 mphMostly Cloudy
10:56 PM41.0 °F39.2 °F93 %29.97 in15.0 miNW (310°)11.5 mphOvercast
11:30 PM41.0 °F39.2 °F93 %29.97 in15.0 miNW (320°)9.2 mphOvercast
11:53 PM41.0 °F39.2 °F93 %29.97 in6.0 miNW (310°)9.2 mphLight Drizzle
Hourly data recorded from CYYT, located miles away from St. John's, Newfoundland







STORIES FROM OUR PARTNERS